Location: Wanzleben
(52.0609°N, 11.4408°E)
Time: 11:34:00
(UTC+00:00)

Lacrosse 4 Rocket - Pass Details

Date: 18 September 2020
Orbit: 543 x 616 km, 68.0° (Epoch: 31 October)

Event Time Altitude Azimuth Distance (km) Brightness Sun altitude
Rises 20:57:57 0° 324° (NW) 2,717 6.1 -29.9°
Reaches altitude 10° 21:00:09 10° 325° (NW) 1,822 4.9 -30.1°
Enters shadow 21:02:09 28° 329° (NNW) 1,050 3.3 -30.3°
